Regional Weather Roundup
Issued by NWS

Home | Current Version | Previous Version | Text Only | Print | Product List | Glossary Off
Versions: 1 2 3 4 5 6 7 8 9 10 11 12 13 14 15 16 17 18 19 20 21 22 23 24 25 26 27 28 29 30 31 32 33 34 35 36 37 38 39 40 41 42 43 44 45 46 47 48 49 50

000
ASUS45 KTFX 282004
RWRMT
MONTANA HOURLY WEATHER ROUNDUP
NATIONAL WEATHER SERVICE GREAT FALLS MT
204 PM MDT SAT MAR 28 2015

NOTE: "FAIR" INDICATES FEW OR NO CLOUDS BELOW 12000 FEET WITH NO
SIGNIFICANT WEATHER AND/OR OBSTRUCTIONS TO VISIBILITY.

* THESE STATIONS ARE NOT UNDER NWS QUALITY CONTROL. THEY DO NOT
   REPORT WEATHER SUCH AS PRECIPITATION OR FOG.

MTZ001>007-043-282100-
WEST OF THE DIVIDE
CITY           SKY/WX    TMP DP  RH WIND       PRES   REMARKS
KALISPELL      CLOUDY    52  34  50 SW23G32   29.97R
MISSOULA       CLOUDY    48  30  50 SW18G30   30.10R
BUTTE          PTCLDY    48  18  30 W25G36    30.03R
MULLAN PASS    LGT SNOW  30  30 100 W8        30.07R VSB 1 1/2 WCI  22
* ESSEX        N/A       42  31  65 W6G22      N/A
* LINCOLN      N/A       47  25  42 SW11G26    N/A
* LOOKOUT PASS N/A       38  35  89 SE6G12     N/A   WCI  33
* POLSON       N/A       51  36  57 SW5G18     N/A
* RONAN APT    PTCLDY    52  34  50 SW20G30    N/A
* SEELEY LAKE  N/A       46  27  48 W10G23     N/A
* THOMP F APT  PTCLDY    57  31  37 NW6G19     N/A
$$

MTZ008-052>055-282100-
SOUTHWEST MONTANA
CITY           SKY/WX    TMP DP  RH WIND       PRES   REMARKS
BOZEMAN        CLOUDY    52  27  38 W22G29    29.97S
DILLON         SUNNY     52  18  26 SW23G32   30.08R
* W YELLOWSTON CLOUDY    51  30  45 SW9G26     N/A
* THREE FORKS  PTCLDY    57  19  23 SW23G37    N/A
* TWIN BRIDGES SUNNY     54  14  20 W14G31     N/A
* BOULDER HILL N/A       44  20  38 S21G32     N/A
* HOMESTAKE PS N/A       42  15  33 W24G39     N/A
* MONIDA PASS  N/A       50  27  41 W20G27     N/A
* RAYNOLDS PAS N/A       51  39  64 SW10G17    N/A
* WHITEHALL    N/A       55  22  28 W18G31     N/A
* WISE RIVER   N/A       43  22  43 W30G44     N/A
$$

MTZ009>010-012-014-046-048-049-054-282100-
EAST SLOPES AND CENTRAL MONTANA
CITY           SKY/WX    TMP DP  RH WIND       PRES   REMARKS
CUT BANK       PTCLDY    52  28  40 W41G51    29.74R
GREAT FALLS    PTSUNNY   52  25  35 W32G47    29.82R
HELENA         PTCLDY    55  27  34 W28G38    29.94S
MALMSTROM AFB  PTSUNNY   52  27  38 W29G44    29.84R
* DEARBORN     N/A       53  19  26 S35G45     N/A
* EAST GLACIER N/A       36  32  85 W24G48     N/A   WCI  24
* MONARCH      N/A       46  21  37 W28G45     N/A
* PENDROY      N/A       49  25  39 W35G42     N/A
* ROGERS PASS  N/A       41  23  49 E6G20      N/A
* SAINT MARY   N/A       39  35  86 SW13G27    N/A   WCI  31
$$

MTZ011-013-016-021-035-040-045-047-050-051-282100-
NORTH CENTRAL MONTANA
CITY           SKY/WX    TMP DP  RH WIND       PRES   REMARKS
HAVRE          CLOUDY    55  32  42 W30G41    29.69R
LEWISTOWN      CLOUDY    52  32  47 W40G51    29.81R
* N BAR RANCH  CLOUDY    54  37  53 NW29G40   29.74R
* MALTA APT    CLOUDY    64  43  47 W26G38     N/A
* CHESTER      N/A       53  29  40 W25G40     N/A
* DENTON       N/A       54  29  38 W38G49     N/A
* GEYSER       N/A       55  28  35 W31G45     N/A
* JUDITH GAP   N/A       54  30  40 W32G40     N/A
* LOMA         N/A       57  25  29 SW27G44    N/A
$$

MTZ017>020-022>027-061-062-282100-
NORTHEAST MONTANA
CITY           SKY/WX    TMP DP  RH WIND       PRES   REMARKS
GLASGOW        CLOUDY    66  36  33 W23G33    29.52R
GLENDIVE       PTCLDY    79  37  22 SW20G32   29.54F
JORDAN         CLOUDY    73  32  22 SW36G46   29.55R
SIDNEY         PTCLDY    79  37  22 S18G24    29.49F
WOLF POINT     PTSUNNY   81  37  21 W16       29.46F
* BEAVER HILL  N/A       77  33  20 SW18G29    N/A
* CIRCLE       N/A       77  39  26 SW18G24    N/A
* LINDSAY DVD  N/A       75  34  22 SW26G32    N/A
* NAVAJO       N/A       70  40  34 S14        N/A
* SACO         N/A       66  40  39 W23        N/A
$$

MTZ028>042-056>058-282100-
SOUTHCENTRAL AND SOUTHEAST MONTANA
CITY           SKY/WX    TMP DP  RH WIND       PRES   REMARKS
BAKER          PTCLDY    79  34  20 SW18G26   29.60F
BILLINGS       PTCLDY    64  36  35 NW30G49   29.71R
LIVINGSTON     CLOUDY    45  36  71 S16G28    29.95R
MILES CITY     PTCLDY    79  34  20 SW17G29   29.55F
* LAUREL APT   PTCLDY    75  34  22 W39G49     N/A
* ROUNDUP APT  CLOUDY    68  34  28 W44G52     N/A
* ALZADA       N/A       79  31  17 S9         N/A
* HYSHAM       N/A       75  29  18 W3G14      N/A
* LAME DEER    N/A       75  25  15 SW17G35    N/A
* ROSCOE HILL  N/A       68  10  10 W9G26      N/A
$$

REGIONAL REPORTS...DAKOTAS
CITY           SKY/WX    TMP DP  RH WIND       PRES   REMARKS
WILLISTON      PTSUNNY   73  37  27 SW9       29.49F
DICKINSON      SUNNY     77  34  21 S24G32    29.57F
CROSBY         SUNNY     68  39  35 SW17G24   29.48F
WATFORD CITY   SUNNY     77  36  23 SW21G28   29.49F
BISMARCK       SUNNY     61  36  39 S22       29.71F
GRAND FORKS    PTSUNNY   48  30  50 S25G36    29.86F
FARGO          SUNNY     48  27  44 S28G35    29.92F
BUFFALO SD     SUNNY     75  32  21 SW17G25   29.59F
RAPID CITY     SUNNY     81  34  18 SE18G29   29.68F
$$

REGIONAL REPORTS...WYOMING/IDAHO/WASHINGTON
CITY           SKY/WX    TMP DP  RH WIND       PRES   REMARKS
GILLETTE       SUNNY     75  23  14 SW24G35   29.72F
SHERIDAN       PTCLDY    79  25  14 SW14      29.69F
CODY           PTCLDY    70  23  17 W25G46    29.79R
YELLOWSTONE LA PTSUNNY   45  25  45 W10G31    30.05S
SALMON         PTSUNNY   52  28  40 SE6       30.12S
MULLAN PASS    LGT SNOW  30  30 100 W8        30.07S VSB 1 1/2 WCI  22
SAND POINT     CLOUDY    52  37  57 S6        30.06F
SPOKANE        PTSUNNY   55  36  49 W25G38    30.11R
$$

REGIONAL REPORTS...ALBERTA
CITY           SKY/WX    TMP DP  RH WIND       PRES   REMARKS
MEDICINE HAT   LGT RAIN  52  41  66 W23G30    29.60R
EDMONTON       PTSUNNY   43  41  93 NW15G24   29.73R

$$



USA.gov is the U.S. government's official web portal to all federal, state and local government web resources and services.